Flag for Germany Weather past 2 weeks in Neu-Isenburg, Hesse, Germany

Now
65 °F

Light rain. Overcast.


Feels Like: 65 °F
Forecast: 57 / 83 °F
Wind: 3 mph from Southwest

Location: Frankfurt / M-Flughafen

Current Time: Aug 28, 2015 at 4:22:05 AM

Latest Report: Aug 28, 2015 at 3:00 AM


Visibility: 22 mi

Pressure: 29.90 "Hg

Humidity: 98%

Dew point: 64 °F

Location of Neu-IsenburgLocation

Historic Weather in Neu-Isenburg — Graph

°F

Neu-Isenburg temperature yesterday

Maximum temperature yesterday: 84 °F (at 3:00 PM)
Minimum temperature yesterday: 58 °F (at 6:00 AM)
Average temperature yesterday: 70 °F

Past Weeks' High & Low Weather Summary

 TemperatureHumidityPressure
High95 °F (Aug 13, 4:00 PM)99% (Aug 15, 6:00 AM)30.29 "Hg (Aug 15, 6:00 AM)
Low50 °F (Aug 19, 6:00 AM)22% (Aug 22, 4:00 PM)29.66 "Hg (Aug 23, 7:00 PM)
Average68 °F67%29.96 "Hg
* Reported Aug 13 3:00 AM — Aug 28 3:00 AM, Neu-Isenburg, Weather by CustomWeather, © 2015

Note: Actual official high and low records may vary slightly from our data, if they occured in-between our weather recording intervals... More about our weather records

Advertising

Neu-Isenburg weather history for previous 24 hours

 ConditionsComfort  
Time TempWeatherWind HumidityBarometerVisibility
3:00 AM
Fri, Aug 28
65 °FLight rain. Overcast.3 mph98%29.90 "Hg22 mi
2:00 AM65 °FLight rain. Overcast.5 mph98%29.90 "Hg6 mi
10:00 PM
Thu, Aug 27
71 °FLight rain. Overcast.3 mph75%29.83 "Hg25 mi
9:00 PM70 °FLight rain. Overcast.6 mph80%29.83 "Hg19 mi
8:00 PM75 °FLight rain. Overcast.10 mph60%29.81 "Hg28 mi
7:00 PM80 °FOvercast.3 mph47%29.78 "Hg31 mi
6:00 PM82 °FOvercast.6 mph43%29.78 "Hg31 mi
4:00 PM83 °FOvercast.7 mph36%29.79 "Hg31 mi
3:00 PM84 °FOvercast.3 mph38%29.81 "Hg31 mi
2:00 PM79 °FOvercast.2 mph48%29.84 "Hg28 mi
1:00 PM77 °FOvercast.2 mph49%29.88 "Hg28 mi
12:00 PM73 °FOvercast.5 mph54%29.90 "Hg28 mi
11:00 AM73 °FOvercast.5 mph57%29.91 "Hg28 mi
10:00 AM71 °FOvercast.5 mph64%29.91 "Hg28 mi
9:00 AM67 °FOvercast.3 mph67%29.90 "Hg28 mi
8:00 AM61 °FOvercast.2 mph88%29.90 "Hg31 mi
7:00 AM59 °FOvercast.3 mph89%29.90 "Hg31 mi
6:00 AM58 °FPassing clouds.1 mph91%29.89 "Hg31 mi
4:00 AM58 °FPassing clouds.No wind89%29.87 "Hg37 mi
Weather by CustomWeather, © 2015

See weather overviewHow to use our weather pages